Location: Newark
(55.7083°N, 13.1992°E)
Time: 17:57:44
(UTC+00:00)

SPROUT - Visible Passes

Search period start: 10 April 2020 00:00
Search period end: 20 April 2020 00:00
Orbit: 599 x 611 km, 97.9° (Epoch: 10 April)

Date Brightness Start Highest point End Pass type
(mag) Time Alt. Az. Time Alt. Az. Time Alt. Az.
10 Apr ? 00:37:44 13° WNW 00:37:44 13° WNW 00:38:52 10° NW visible
10 Apr ? 21:36:45 21° ENE 21:37:26 22° ENE 21:40:44 10° N visible
10 Apr ? 23:13:36 55° NW 23:13:36 55° NW 23:17:10 10° NNW visible
11 Apr ? 21:49:28 26° ENE 21:50:00 27° ENE 21:53:36 10° N visible
11 Apr ? 23:26:19 45° WNW 23:26:19 45° WNW 23:29:49 10° NNW visible
12 Apr ? 22:02:11 32° ENE 22:02:35 33° ENE 22:06:26 10° N visible
12 Apr ? 23:39:02 36° WNW 23:39:02 36° WNW 23:42:24 10° NNW visible
13 Apr ? 22:14:54 40° ENE 22:15:11 41° ENE 22:19:13 10° N visible
13 Apr ? 23:51:45 29° WNW 23:51:45 29° WNW 23:54:56 10° NNW visible
14 Apr ? 20:51:35 10° ENE 20:52:52 11° NE 20:54:09 10° NNE visible
14 Apr ? 22:27:37 51° ENE 22:27:48 52° ENE 22:31:58 10° N visible
15 Apr ? 00:04:28 24° W 00:04:28 24° W 00:07:25 10° NW visible
15 Apr ? 21:03:28 11° ENE 21:05:22 14° NE 21:07:28 10° NNE visible
15 Apr ? 22:40:19 66° E 22:40:27 67° ENE 22:44:42 10° N visible
16 Apr ? 00:17:10 19° W 00:17:10 19° W 00:19:49 10° NW visible
16 Apr ? 21:16:11 13° E 21:17:52 16° NE 21:20:32 10° NNE visible
16 Apr ? 22:53:02 84° E 22:53:06 85° ENE 22:57:24 10° NNW visible
17 Apr ? 00:29:53 15° W 00:29:53 15° W 00:32:05 10° NW visible
17 Apr ? 21:28:54 17° E 21:30:24 20° NE 21:33:29 10° N visible
17 Apr ? 23:05:44 76° WSW 23:05:46 76° WSW 23:10:03 10° NNW visible
18 Apr ? 00:42:35 12° W 00:42:35 12° W 00:44:04 10° WNW visible
18 Apr ? 21:41:36 20° E 21:42:56 24° ENE 21:46:22 10° N visible
18 Apr ? 23:18:27 59° WSW 23:18:28 59° WSW 23:22:42 10° NNW visible
19 Apr ? 21:54:19 25° E 21:55:30 29° ENE 21:59:12 10° N visible
19 Apr ? 23:31:10 45° W 23:31:11 45° W 23:35:18 10° NNW visible
